#timestamp,LO_Frequency,Hit,StdDev 
1572732015.4,286046993.6,N
1572732035.2,286046994.4,N
1572732055.1,286047000.2,N
1572732056.0,286047000.2,N
1572732075.8,286047000.7,N
1572732095.7,286046998.4,N
1572732115.5,286047002.4,N
1572732135.3,286047006.6,N
1572732155.2,286047013.8,N
1572732175.0,286047015.4,N
1572732175.9,286047015.4,N
1572732195.8,286047016.3,N
1572732215.6,286047017.7,N
1572732235.4,286047019.6,N
1572732255.3,286047020.3,N
1572732275.1,286047019.3,N
1572732295.8,286047021.0,N
1572732315.7,286047024.5,N
1572732335.5,286047027.3,N
1572732355.4,286047024.6,N
1572732375.2,286047022.4,N
1572732395.0,286047021.9,N
1572732395.9,286047021.9,N
1572732415.8,286047016.7,N
1572732435.6,286047014.1,N
1572732455.5,286047011.9,N
1572732475.3,286047010.0,N
1572732495.2,286047010.4,N
1572732515.9,286047007.3,N
1572732535.7,286047003.4,N
1572732555.6,286047004.3,N
1572732575.4,286047001.4,N
1572732595.2,286046999.1,N
1572732615.1,286046994.9,N
1572732616.0,286046994.9,N
1572732635.8,286046997.1,N
1572732655.7,286047002.0,N
1572732675.5,286047003.8,N
1572732695.3,286047005.4,N
1572732715.2,286047006.1,N
1572732735.0,286047004.0,N
1572732735.9,286047004.0,N
1572732755.8,286046999.7,N
1572732775.6,286047005.3,N
1572732795.4,286047006.8,N
1572732815.3,286047011.4,N
1572732835.1,286047012.3,N
1572732855.8,286047017.1,N
1572732875.7,286047019.7,N
1572732895.5,286047021.6,N
1572732915.4,286047019.7,N
1572732935.2,286047017.0,N
1572732955.0,286047015.1,N
1572732955.9,286047015.1,N
1572732975.8,286047020.1,N
1572732995.6,286047017.8,N
1572733015.5,286047023.5,Y
1572733035.3,286047011.9,P
1572733055.1,286047015.0,P
1572733075.9,286047012.7,P
1572733095.7,286047009.1,Y
1572733115.5,286046999.0,P
1572733135.4,286047000.9,N
1572733155.2,286046996.6,N
1572733175.1,286046999.7,N
1572733176.0,286046999.7,N
1572733195.8,286046999.1,N
1572733215.7,286046996.5,N
1572733235.5,286046998.1,N
1572733255.3,286047001.8,N
1572733275.2,286047002.6,N
1572733295.0,286047002.1,N
1572733295.9,286047002.1,N
1572733315.8,286047000.6,N
1572733335.6,286046997.9,N
1572733355.4,286047001.1,N
1572733375.3,286047005.5,N
1572733395.1,286047007.2,N
1572733415.8,286047006.0,N
1572733435.7,286047001.0,N
1572733455.5,286047004.8,N
1572733475.4,286047005.3,N
1572733495.2,286047003.7,N
1572733515.0,286047010.6,N
1572733515.9,286047010.6,N
1572733535.8,286047010.4,N
1572733555.6,286047008.0,N
1572733575.4,286046998.8,N
1572733595.3,286046994.1,N
1572733615.1,286046997.0,N
1572733635.9,286046998.7,N
1572733655.7,286047000.2,N
1572733675.5,286046994.9,N
1572733695.4,286047001.1,N
1572733715.2,286047000.6,N
1572733735.1,286046998.5,N
1572733736.0,286046998.5,N
1572733755.8,286047006.5,N
1572733775.6,286047011.4,N
1572733795.5,286047009.4,N
1572733815.3,286047013.4,N
1572733835.2,286047010.5,N
1572733855.9,286047006.3,N
1572733875.6,286047005.7,N
1572733895.5,286046996.5,N
1572733915.3,286046996.4,N
1572733935.1,286046991.6,N
1572733955.9,286046987.6,N
1572733975.7,286046989.6,N
1572733995.6,286046989.8,N
1572734015.4,286046990.2,N
1572734035.2,286046988.7,N
1572734055.1,286046993.7,N
1572734056.0,286046993.7,N
1572734075.8,286046998.7,N
1572734095.7,286046999.6,N
1572734115.5,286046999.9,N
1572734135.3,286046996.1,N
1572734155.2,286046992.5,N
1572734175.0,286046992.9,N
1572734175.9,286046992.9,N
1572734195.7,286046993.7,N
1572734215.6,286046994.3,N
1572734235.4,286046993.3,N
1572734255.3,286046998.5,N
1572734275.1,286047005.0,N
1572734295.8,286047003.0,N
1572734315.7,286047007.5,N
1572734335.5,286047006.3,N
1572734355.4,286047009.3,N
1572734375.2,286047011.6,N
1572734395.0,286047012.4,N
1572734395.9,286047012.4,N
1572734415.8,286047010.9,N
1572734435.6,286047012.8,N
1572734455.4,286047021.3,N
1572734475.3,286047019.4,N
1572734495.1,286047017.8,N
1572734515.9,286047023.9,N
1572734535.7,286047028.4,N
1572734555.5,286047020.5,N
1572734575.4,286047021.6,N
1572734595.2,286047021.6,N
1572734615.1,286047021.0,N
1572734616.0,286047021.0,N
1572734635.8,286047024.0,N
1572734655.6,286047030.6,N
1572734675.5,286047032.7,N
1572734695.3,286047029.7,N
1572734715.1,286047027.8,N
1572734735.9,286047032.6,N
1572734755.7,286047036.4,Y
1572734775.6,286047026.8,P
1572734795.4,286047023.3,P
1572734815.2,286047029.9,P
1572734835.1,286047030.9,Y
1572734836.0,286047030.9,P
1572734855.8,286047012.9,P
1572734875.7,286047019.7,N
1572734895.5,286047020.3,Y
1572734915.3,286046994.6,P
1572734935.2,286046992.2,N
1572734955.0,286046987.9,N
1572734955.9,286046987.9,N
1572734975.8,286046979.0,N
1572734995.6,286046982.7,N
1572735015.4,286046984.8,N
1572735035.3,286046984.7,N
1572735055.1,286046985.2,N
1572735075.9,286046986.8,N
1572735095.7,286046988.8,N
1572735115.5,286046986.9,N
1572735135.4,286046993.4,N
1572735155.2,286046996.0,N
1572735175.0,286046992.4,N
1572735175.9,286046992.4,N
1572735195.8,286046994.7,N
1572735215.6,286046992.9,N
1572735235.5,286046991.0,N
1572735255.3,286046990.5,N
1572735275.1,286046989.2,N
1572735295.9,286046992.8,N
1572735315.7,286046990.0,N
1572735335.5,286046985.3,N
1572735355.4,286046982.5,N
1572735375.2,286046977.3,N
1572735395.1,286046979.6,N
1572735396.0,286046979.6,N
1572735415.8,286046981.2,N
1572735435.6,286046980.9,N
1572735455.5,286046977.5,Y
1572735475.3,286046993.0,P
1572735495.2,286046991.4,P
1572735515.9,286046989.6,P
1572735535.7,286046985.6,Y
1572735555.6,286046993.3,P
1572735575.4,286046989.7,P
1572735595.2,286046985.4,P
